Tracking 31027 objects as of 19-Jul-2025
HD Live streaming from Space Station
objects crossing your sky now

STARLINK-5681

Track STARLINK-5681 now!
10-day predictions
STARLINK-5681 is classified as:


NORAD ID: 55469
Int'l Code: 2023-015W
Perigee: 565.8 km
Apogee: 566.7 km
Inclination: 43.0 °
Period: 95.8 minutes
Semi major axis: 6937 km
RCS: Unknown
Launch date: February 2, 2023
Source: United States (US)
Launch site: AIR FORCE EASTERN TEST RANGE (AFETR)
Your satellite tracking list
KORSAT 7
Track 1 satellite(s)




NASA's NSSDC Master Catalog

Two Line Element Set (TLE):
1 55469U 23015W   25199.27677134 -.00001593  00000-0 -10297-3 0  9995
2 55469  43.0027 159.6016 0000616 274.9772  85.1000 15.02520937135496
Source of the keplerian elements: AFSPC